Location: Piedmont
(45.8748°N, 74.1254°W)
Time: 14:47:09
(UTC+00:00)

N. Korean satellite - Pass Details

Date: 03 December 2021
Orbit: 446 x 491 km, 97.3° (Epoch: 18 January)

Event Time Altitude Azimuth Distance (km) Brightness Sun altitude
Rises 22:04:57 0° 196° (SSW) 2,536 10.8 -8.9°
Reaches altitude 10° 22:07:20 10° 212° (SSW) 1,653 10.2 -9.3°
Maximum altitude 22:10:12 23° 265° (W) 1,072 9.3 -9.8°
Drops below altitude 10° 22:13:02 10° 319° (NW) 1,642 9.5 -10.2°
Sets 22:15:24 0° 335° (NNW) 2,515 10.3 -10.6°
